This is the latest recevied weather packets stored in our database for station/object VK4HIT-13. If no packets are shown the sender has not sent any weather packets the latest 1 day(s).
| Time | Temp. | Humidity | Pressure | Rain* | Wind** | Luminosity | Snow |
|---|---|---|---|---|---|---|---|
| 1836274639 | 21.11° C | 78% | 1013.1 hPa | 0 mm | 2.68 m/s, 184° | - | - |
| 1836274489 | 21.11° C | 75% | 1012.8 hPa | 0 mm | 1.79 m/s, 157° | - | - |
| 1836274339 | 20.56° C | 77% | 1013 hPa | 0 mm | 2.24 m/s, 154° | - | - |
| 1836274189 | 21.11° C | 77% | 1013 hPa | 0 mm | 2.24 m/s, 172° | - | - |
| 1836274039 | 20.56° C | 78% | 1012.9 hPa | 0 mm | 1.79 m/s, 165° | - | - |
| 1778060368 | 20° C | 85% | 1017.7 hPa | 0 mm | 1.34 m/s, 26° | - | - |
| 1778060068 | 20° C | 85% | 1017.6 hPa | 0 mm | 1.79 m/s, 30° | - | - |
| 1778059768 | 20° C | 85% | 1017.5 hPa | 0 mm | 1.34 m/s, 30° | - | - |
| 1778059468 | 20° C | 85% | 1017.4 hPa | 0 mm | 1.34 m/s, 32° | - | - |
| 1778059168 | 20° C | 85% | 1017.3 hPa | 0 mm | 1.79 m/s, 30° | - | - |
| 1778058868 | 20.56° C | 84% | 1017.4 hPa | 0 mm | 1.79 m/s, 30° | - | - |
| 1778058568 | 20.56° C | 84% | 1017.4 hPa | 0 mm | 1.34 m/s, 26° | - | - |
| 1778058268 | 20.56° C | 83% | 1017.4 hPa | 0 mm | 0.89 m/s, 23° | - | - |
| 1778057968 | 20.56° C | 83% | 1017.3 hPa | 0 mm | 1.34 m/s, 25° | - | - |
| 1778057668 | 20.56° C | 82% | 1017 hPa | 0 mm | 1.79 m/s, 20° | - | - |
| 1778057368 | 20.56° C | 82% | 1016.9 hPa | 0 mm | 1.34 m/s, 21° | - | - |
| 1778057068 | 20.56° C | 82% | 1017 hPa | 0 mm | 0.89 m/s, 28° | - | - |
| 1778056768 | 21.11° C | 82% | 1016.9 hPa | 0 mm | 1.34 m/s, 18° | - | - |
| 1778056468 | 21.11° C | 81% | 1016.8 hPa | 0 mm | 1.34 m/s, 26° | - | - |
| 1778056168 | 21.11° C | 81% | 1016.8 hPa | 0 mm | 1.34 m/s, 13° | - | - |
| 1778055868 | 21.11° C | 81% | 1016.7 hPa | 0 mm | 0.89 m/s, 25° | - | - |
| 1778055568 | 21.11° C | 81% | 1016.6 hPa | 0 mm | 0.89 m/s, 24° | - | - |
| 1778055268 | 21.11° C | 80% | 1016.5 hPa | 0 mm | 1.34 m/s, 26° | - | - |
| 1778054968 | 21.11° C | 80% | 1016.3 hPa | 0 mm | 0.89 m/s, 20° | - | - |
| 1778054668 | 21.11° C | 80% | 1016.3 hPa | 0 mm | 0.89 m/s, 28° | - | - |
* Rain latest hour (hover to see other rain measurements)
** Current wind speed in m/s (hover to see current wind gust speed)